Cortland, IL

9:36 PM CDT on July 29, 2016 (GMT -0500)
De Kalb Taylor Municipal

Weather History for KDKB - February, 2012

Change the Weather History Date:

Saturday, February 25, 2012

  Actual Average (KARR) Record (KARR)
Temperature  
Mean Temperature 19 °F 29 °F  
Max Temperature 23 °F 38 °F 70 °F (2000)
Min Temperature 15 °F 20 °F -9 °F (2003)
Degree Days  
Heating Degree Days 46 36  
Month to date heating degree days 1016  
Since 1 July heating degree days 5033  
Cooling Degree Days 0 0  
Month to date cooling degree days 0  
Year to date cooling degree days 0  
Moisture  
Dew Point 12 °F    
Average Humidity 68    
Maximum Humidity 79    
Minimum Humidity 59    
Precipitation  
Precipitation 0.00 in 0.07 in 0.55 in (2007)
Month to date precipitation 1.39  
Year to date precipitation 2.86  
Sea Level Pressure  
Sea Level Pressure 30.13 in    
Wind  
Wind Speed 14 mph (West)    
Max Wind Speed 21 mph    
Max Gust Speed 24 mph    
Visibility 10 miles    
Events      
T = Trace of Precipitation, MM = Missing Value Source: NWS Daily Summary

Daily Weather History Graph

Daily Weather History Graph

Search for Another Location

Airport or City:

Trip Planner

Search our weather history database for the weather conditions in past years. The results will help you decide how hot, cold, wet, or windy it might be!

Date:

Astronomy

Feb. 25, 2012 Rise Set
Actual Time 6:36 AM CST 5:39 PM CST
Civil Twilight 6:08 AM CST 6:07 PM CST
Nautical Twilight 5:36 AM CST 6:40 PM CST
Astronomical Twilight 5:04 AM CST 7:12 PM CST
Moon 7:56 AM CST (2/25) 9:45 PM CST (2/25)
Length of Visible Light 11h 59m
Length of Day
11h 02m
Waxing Crescent, 14% of the Moon is Illuminated
Feb 25
Waxing Crescent
Feb 29
First Quarter
Mar 8
Full
Mar 14
Last Quarter
Mar 22
New

Hourly Weather History & Observations

Time (CST) Temp. Windchill Dew Point Humidity Pressure Visibility Wind Dir Wind Speed Gust Speed Precip Events Conditions
12:15 AM 23.0 °F 9.2 °F 16.3 °F 76% 29.95 in 10.0 mi West 17.3 mph 20.7 mph N/A   Clear
12:35 AM 23.0 °F 10.1 °F 16.0 °F 74% 29.95 in 10.0 mi West 15.0 mph 23.0 mph N/A   Clear
12:55 AM 23.0 °F 10.6 °F 15.4 °F 73% 29.96 in 10.0 mi WSW 13.8 mph - N/A   Clear
1:15 AM 22.1 °F 10.0 °F 15.6 °F 76% 29.96 in 10.0 mi West 12.7 mph - N/A   Clear
1:35 AM 22.1 °F 9.5 °F 16.5 °F 79% 29.97 in 10.0 mi West 13.8 mph - N/A   Clear
1:55 AM 22.1 °F 10.0 °F 16.3 °F 79% 29.97 in 10.0 mi West 12.7 mph 18.4 mph N/A   Clear
2:15 AM 22.1 °F 7.6 °F 15.3 °F 75% 29.98 in 10.0 mi West 18.4 mph - N/A   Clear
2:35 AM 21.2 °F 6.4 °F 13.6 °F 73% 29.98 in 10.0 mi West 18.4 mph - N/A   Clear
2:55 AM 20.8 °F 5.9 °F 12.7 °F 71% 29.98 in 10.0 mi West 18.4 mph 24.2 mph N/A   Clear
3:15 AM 19.8 °F 5.4 °F 11.8 °F 71% 29.99 in 10.0 mi West 16.1 mph - N/A   Clear
3:35 AM 19.8 °F 5.9 °F 11.8 °F 71% 30.00 in 10.0 mi West 15.0 mph 23.0 mph N/A   Clear
3:55 AM 19.2 °F 4.3 °F 11.1 °F 71% 30.01 in 10.0 mi West 17.3 mph - N/A   Clear
4:15 AM 18.9 °F 4.3 °F 10.4 °F 70% 30.01 in 10.0 mi West 16.1 mph - N/A   Clear
4:35 AM 18.3 °F 3.6 °F 10.4 °F 71% 30.02 in 10.0 mi West 16.1 mph - N/A   Clear
4:55 AM 17.6 °F 3.2 °F 10.4 °F 73% 30.03 in 10.0 mi West 15.0 mph 20.7 mph N/A   Clear
5:15 AM 17.2 °F 2.7 °F 9.7 °F 72% 30.03 in 10.0 mi West 15.0 mph - N/A   Clear
5:35 AM 16.9 °F 2.3 °F 9.5 °F 73% 30.04 in 10.0 mi West 15.0 mph - N/A   Clear
5:55 AM 16.3 °F 2.1 °F 9.3 °F 74% 30.05 in 10.0 mi West 13.8 mph - N/A   Clear
6:15 AM 16.3 °F 2.7 °F 9.1 °F 73% 30.06 in 10.0 mi West 12.7 mph - N/A   Clear
6:35 AM 15.8 °F 1.4 °F 8.6 °F 73% 30.07 in 10.0 mi West 13.8 mph - N/A   Clear
6:55 AM 15.6 °F 0.1 °F 8.6 °F 74% 30.09 in 10.0 mi West 16.1 mph - N/A   Clear
7:15 AM 15.8 °F 2.1 °F 8.4 °F 73% 30.11 in 10.0 mi West 12.7 mph - N/A   Clear
7:35 AM 15.8 °F 0.9 °F 8.2 °F 72% 30.12 in 10.0 mi West 15.0 mph - N/A   Clear
7:55 AM 16.5 °F 2.4 °F 8.6 °F 71% 30.13 in 10.0 mi West 13.8 mph - N/A   Clear
8:15 AM 17.1 °F 3.6 °F 8.6 °F 69% 30.14 in 10.0 mi WNW 12.7 mph - N/A   Clear
8:35 AM 17.6 °F 3.2 °F 9.1 °F 69% 30.15 in 10.0 mi WNW 15.0 mph - N/A   Clear
8:55 AM 18.3 °F 3.6 °F 9.5 °F 68% 30.16 in 10.0 mi WNW 16.1 mph - N/A   Clear
9:15 AM 18.9 °F 5.3 °F 10.0 °F 69% 30.16 in 10.0 mi West 13.8 mph - N/A   Clear
9:35 AM 19.4 °F 6.0 °F 10.2 °F 68% 30.17 in 10.0 mi West 13.8 mph - N/A   Clear
9:55 AM 20.1 °F 4.2 °F 10.8 °F 67% 30.19 in 10.0 mi WNW 20.7 mph - N/A   Clear
10:15 AM 20.3 °F 6.6 °F 10.6 °F 66% 30.19 in 10.0 mi West 15.0 mph 23.0 mph N/A   Clear
10:35 AM 20.8 °F 6.8 °F 10.8 °F 65% 30.20 in 10.0 mi West 16.1 mph 20.7 mph N/A   Clear
10:55 AM 21.0 °F 6.6 °F 10.9 °F 65% 30.21 in 10.0 mi West 17.3 mph 23.0 mph N/A   Clear
11:15 AM 21.2 °F 6.8 °F 10.8 °F 64% 30.21 in 10.0 mi WNW 17.3 mph - N/A   Clear
11:35 AM 21.9 °F 6.9 °F 10.9 °F 63% 30.21 in 10.0 mi WNW 19.6 mph - N/A   Clear
11:55 AM 22.1 °F 8.5 °F 11.1 °F 63% 30.22 in 10.0 mi West 16.1 mph - N/A   Clear
12:15 PM 23.0 °F 10.6 °F 12.2 °F 63% 30.22 in 10.0 mi WNW 13.8 mph - N/A   Clear
12:35 PM 23.0 °F 11.1 °F 10.4 °F 59% 30.23 in 10.0 mi WNW 12.7 mph - N/A   Clear
12:55 PM 22.6 °F 9.2 °F 11.7 °F 63% 30.23 in 10.0 mi West 16.1 mph 19.6 mph N/A   Clear
1:15 PM 22.8 °F 9.4 °F 11.5 °F 62% 30.24 in 10.0 mi West 16.1 mph - N/A   Clear
1:35 PM 23.5 °F 13.0 °F 12.7 °F 63% 30.22 in 10.0 mi West 10.4 mph - N/A   Clear
1:55 PM 23.9 °F 12.9 °F 13.1 °F 63% 30.23 in 10.0 mi West 11.5 mph - N/A   Clear
2:15 PM 23.9 °F 13.5 °F 13.1 °F 63% 30.23 in 10.0 mi West 10.4 mph - N/A   Clear
2:35 PM 23.9 °F 12.9 °F 12.9 °F 63% 30.23 in 10.0 mi West 11.5 mph - N/A   Clear
2:55 PM 23.9 °F 13.5 °F 12.2 °F 61% 30.22 in 10.0 mi West 10.4 mph - N/A   Clear
3:15 PM 23.9 °F 13.5 °F 12.2 °F 61% 30.23 in 10.0 mi West 10.4 mph - N/A   Clear
3:35 PM 23.5 °F 16.4 °F 12.2 °F 62% 30.24 in 10.0 mi West 5.8 mph - N/A   Clear
3:55 PM 23.4 °F 16.2 °F 11.8 °F 61% 30.23 in 10.0 mi West 5.8 mph - N/A   Clear
4:15 PM 22.6 °F 16.5 °F 10.9 °F 61% 30.23 in 10.0 mi WNW 4.6 mph - N/A   Clear
4:35 PM 22.3 °F 13.9 °F 11.3 °F 63% 30.24 in 10.0 mi West 6.9 mph - N/A   Clear
4:55 PM 22.8 °F 15.5 °F 11.7 °F 62% 30.24 in 10.0 mi WSW 5.8 mph - N/A   Clear
5:15 PM 22.6 °F 12.6 °F 11.5 °F 62% 30.25 in 10.0 mi WSW 9.2 mph - N/A   Clear
5:35 PM 22.5 °F 14.1 °F 12.2 °F 65% 30.25 in 10.0 mi SW 6.9 mph - N/A   Clear
5:55 PM 21.6 °F 15.3 °F 12.0 °F 67% 30.26 in 10.0 mi SW 4.6 mph - N/A   Clear
6:15 PM 20.8 °F 13.2 °F 11.8 °F 68% 30.27 in 10.0 mi SW 5.8 mph - N/A   Clear
6:35 PM 19.6 °F 13.0 °F 10.9 °F 69% 30.27 in 10.0 mi SW 4.6 mph - N/A   Clear
6:55 PM 18.7 °F 11.9 °F 10.2 °F 70% 30.27 in 10.0 mi SSW 4.6 mph - N/A   Clear
7:15 PM 17.6 °F 9.3 °F 10.4 °F 73% 30.27 in 10.0 mi SSW 5.8 mph - N/A   Clear
7:35 PM 18.1 °F 8.9 °F 10.4 °F 72% 30.28 in 10.0 mi SSW 6.9 mph - N/A   Clear
7:55 PM 16.7 °F 9.6 °F 9.5 °F 73% 30.29 in 10.0 mi SW 4.6 mph - N/A   Clear
8:15 PM 17.2 °F 11.9 °F 10.4 °F 75% 30.28 in 10.0 mi SSW 3.5 mph - N/A   Clear
8:35 PM 15.1 °F - 9.1 °F 77% 30.28 in 10.0 mi Calm Calm - N/A   Clear
8:55 PM 16.5 °F - 10.4 °F 77% 30.27 in 10.0 mi Calm Calm - N/A   Clear
9:15 PM 17.1 °F 11.7 °F 10.9 °F 77% 30.28 in 10.0 mi South 3.5 mph - N/A   Clear
9:35 PM 16.3 °F - 10.4 °F 77% 30.27 in 10.0 mi Calm Calm - N/A   Clear
9:55 PM 15.8 °F - 9.9 °F 77% 30.27 in 10.0 mi Calm Calm - N/A   Clear
10:15 PM 16.0 °F - 10.0 °F 77% 30.28 in 10.0 mi Calm Calm - N/A   Clear
10:35 PM 14.0 °F 6.5 °F 8.2 °F 78% 30.27 in 10.0 mi SSE 4.6 mph - N/A   Clear
10:55 PM 12.7 °F 3.6 °F 7.2 °F 78% 30.28 in 10.0 mi SSE 5.8 mph - N/A   Clear
11:15 PM 14.2 °F 5.3 °F 8.8 °F 79% 30.27 in 10.0 mi ESE 5.8 mph - N/A   Clear
11:35 PM 14.5 °F 7.1 °F 8.6 °F 77% 30.25 in 10.0 mi ESE 4.6 mph - N/A   Clear
11:55 PM 14.0 °F 6.5 °F 8.2 °F 78% 30.25 in 10.0 mi ESE 4.6 mph - N/A   Clear